COSMOS 2539 (44457 NORAD) Tracking and Keplerian Element Data

This shows tracking and keplerian element data for the satellite.

Feedback or suggestion? Click here.




ElementValue
Catalog44457
NameCOSMOS 2539
Epoch Orbit35
Epoch Day244.91227981
Epoch Year2019
RAAN117.9956
Inclination0.0195
Eccentricity0.0001703
Argument of Perigee298.2327
Mean Anonmoly297.9549
Mean Motion1.00278695
Decay Rate1.12E-06
L11 44457U 19048A 19244.91227981 .00000112 00000-0 10000-3 0 9993
L22 44457 0.0195 117.9956 0001703 298.2327 297.9549 1.00278695 354

Live tracking and technical data element details for COSMOS 2539 (NORAD 44457). COSMOS 2539 can be tracked NOW for your location showing map with azimuth and elevation plus other details from your city location.

Track the satellite on the map from your city or location and see movement details for azimuth, elevation, latitude, longitude, range, height, and movement on the map or in text.







IsCatalogInMostPopularTable: catalog: 44457, numindb: 13
Update: records affected: 1



GetName: 44457 COSMOS 2539

Hit Count: updated at: Wed, 23 Oct 2019 00:55:54 GMT